Rolla, ND

4:57 AM CDT on August 22, 2017 (GMT -0500)
Rolla

Weather History for K06D - April, 2013

Change the Weather History Date:

Monday, April 22, 2013

  Actual Average (KRUG) Record (KRUG)
Temperature  
Mean Temperature 21 °F -  
Max Temperature 28 °F 59 °F 95 °F (1980)
Min Temperature 14 °F 33 °F 16 °F (1967)
Degree Days  
Heating Degree Days 44    
Moisture  
Dew Point 18 °F    
Average Humidity 79    
Maximum Humidity 93    
Minimum Humidity 64    
Precipitation  
Precipitation 0.00 in - - ()
Sea Level Pressure  
Sea Level Pressure 30.30 in    
Wind  
Wind Speed 17 mph (NW)    
Max Wind Speed 22 mph    
Max Gust Speed 28 mph    
Visibility 10 miles    
Events      
Averages and records for this station are not official NWS values.
T = Trace of Precipitation, MM = Missing Value Source: NWS Daily Summary

Daily Weather History Graph

Daily Weather History Graph

Search for Another Location

Airport or City:

Trip Planner

Search our weather history database for the weather conditions in past years. The results will help you decide how hot, cold, wet, or windy it might be!

Date:

Astronomy

Apr. 22, 2013 Rise Set
Actual Time 6:33 AM CDT 8:41 PM CDT
Civil Twilight 5:59 AM CDT 9:15 PM CDT
Nautical Twilight 5:16 AM CDT 9:58 PM CDT
Astronomical Twilight 4:29 AM CDT 10:46 PM CDT
Moon 5:17 PM CDT 4:46 AM CDT
Length of Visible Light 15h 16m
Length of Day
14h 07m
Waxing Gibbous, 88% of the Moon is Illuminated
Apr 22
Waxing Gibbous
Apr 25
Full
May 2
Last Quarter
May 9
New
May 17
First Quarter

Hourly Weather History & Observations

Time (CDT) Temp. Windchill Dew Point Humidity Pressure Visibility Wind Dir Wind Speed Gust Speed Precip Events Conditions
12:15 AM 26.6 °F 12.4 °F 21.2 °F 80% 30.17 in 10.0 mi NW 21.9 mph 25.3 mph N/A   Overcast
12:35 AM 26.6 °F 12.4 °F 21.2 °F 80% 30.17 in 10.0 mi NW 21.9 mph - N/A   Overcast
12:55 AM 24.8 °F 10.7 °F 21.2 °F 86% 30.18 in 10.0 mi NW 19.6 mph 24.2 mph N/A   Partly Cloudy
1:15 AM 24.8 °F 10.3 °F 21.2 °F 86% 30.18 in 10.0 mi NNW 20.7 mph - N/A   Scattered Clouds
1:35 AM 24.8 °F 10.3 °F 21.2 °F 86% 30.20 in 10.0 mi NW 20.7 mph - N/A   Overcast
1:55 AM 24.8 °F 10.3 °F 21.2 °F 86% 30.21 in 10.0 mi NW 20.7 mph 27.6 mph N/A   Overcast
2:15 AM 24.8 °F 10.0 °F 21.2 °F 86% 30.19 in 10.0 mi NW 21.9 mph - N/A   Overcast
2:35 AM 24.8 °F 10.7 °F 19.4 °F 80% 30.19 in 10.0 mi NW 19.6 mph - N/A   Scattered Clouds
2:55 AM 24.8 °F 12.4 °F 19.4 °F 80% 30.21 in 10.0 mi NW 15.0 mph - N/A   Clear
3:15 AM 23.0 °F 11.1 °F 19.4 °F 86% 30.22 in 10.0 mi NW 12.7 mph - N/A   Partly Cloudy
3:35 AM 23.0 °F 10.1 °F 19.4 °F 86% 30.22 in 10.0 mi NW 15.0 mph - N/A   Scattered Clouds
3:55 AM 23.0 °F 10.1 °F 19.4 °F 86% 30.22 in 10.0 mi NW 15.0 mph - N/A   Mostly Cloudy
4:15 AM 23.0 °F 10.6 °F 19.4 °F 86% 30.22 in 10.0 mi NW 13.8 mph - N/A   Partly Cloudy
4:35 AM 23.0 °F 11.1 °F 19.4 °F 86% 30.23 in 10.0 mi NNW 12.7 mph - N/A   Mostly Cloudy
4:55 AM 24.8 °F 12.9 °F 19.4 °F 80% 30.24 in 10.0 mi NW 13.8 mph - N/A   Overcast
5:15 AM 23.0 °F 11.7 °F 19.4 °F 86% 30.24 in 10.0 mi NNW 11.5 mph - N/A   Overcast
5:35 AM 23.0 °F 12.4 °F 19.4 °F 86% 30.25 in 10.0 mi NNW 10.4 mph - N/A   Overcast
5:55 AM 23.0 °F 11.7 °F 19.4 °F 86% 30.26 in 10.0 mi NNW 11.5 mph - N/A   Overcast
6:15 AM 23.0 °F 11.7 °F 19.4 °F 86% 30.25 in 10.0 mi NNW 11.5 mph - N/A   Overcast
6:35 AM 23.0 °F 10.1 °F 19.4 °F 86% 30.25 in 10.0 mi NNW 15.0 mph - N/A   Overcast
6:55 AM 23.0 °F 11.7 °F 19.4 °F 86% 30.27 in 10.0 mi North 11.5 mph - N/A   Mostly Cloudy
7:15 AM 23.0 °F 9.6 °F 19.4 °F 86% 30.27 in 10.0 mi NNW 16.1 mph - N/A   Overcast
7:35 AM 23.0 °F 11.1 °F 19.4 °F 86% 30.28 in 10.0 mi NNW 12.7 mph - N/A   Overcast
7:55 AM 24.8 °F 14.0 °F 19.4 °F 80% 30.28 in 10.0 mi NNW 11.5 mph - N/A   Overcast
8:15 AM 24.8 °F 14.6 °F 19.4 °F 80% 30.29 in 10.0 mi NNW 10.4 mph - N/A   Overcast
8:35 AM 24.8 °F 12.9 °F 19.4 °F 80% 30.30 in 10.0 mi NNW 13.8 mph - N/A   Overcast
8:55 AM 24.8 °F 11.5 °F 23.0 °F 93% 30.30 in 10.0 mi NW 17.3 mph - N/A   Overcast
9:15 AM 24.8 °F 11.9 °F 23.0 °F 93% 30.31 in 10.0 mi NW 16.1 mph - N/A   Overcast
9:35 AM 23.0 °F 10.1 °F 21.2 °F 93% 30.32 in 10.0 mi NW 15.0 mph 20.7 mph N/A   Overcast
9:55 AM 24.8 °F 12.4 °F 21.2 °F 86% 30.33 in 10.0 mi NW 15.0 mph - N/A   Overcast
10:15 AM 24.8 °F 14.6 °F 21.2 °F 86% 30.34 in 10.0 mi NNW 10.4 mph - N/A   Overcast
10:35 AM 24.8 °F 12.9 °F 21.2 °F 86% 30.34 in 10.0 mi NNW 13.8 mph - N/A   Overcast
10:55 AM 24.8 °F 12.9 °F 21.2 °F 86% 30.34 in 10.0 mi North 13.8 mph - N/A   Overcast
11:15 AM 24.8 °F 11.9 °F 21.2 °F 86% 30.35 in 10.0 mi NNW 16.1 mph - N/A   Mostly Cloudy
11:35 AM 24.8 °F 11.5 °F 21.2 °F 86% 30.35 in 10.0 mi NNW 17.3 mph - N/A   Partly Cloudy
11:55 AM 24.8 °F 11.5 °F 21.2 °F 86% 30.35 in 10.0 mi NNW 17.3 mph - N/A   Mostly Cloudy
12:15 PM 24.8 °F 11.5 °F 21.2 °F 86% 30.35 in 10.0 mi NNW 17.3 mph - N/A   Partly Cloudy
12:35 PM 24.8 °F 11.5 °F 19.4 °F 80% 30.35 in 10.0 mi NNW 17.3 mph - N/A   Clear
12:55 PM 26.6 °F 13.1 °F 19.4 °F 74% 30.35 in 10.0 mi NNW 19.6 mph - N/A   Clear
1:15 PM 26.6 °F 13.4 °F 19.4 °F 74% 30.35 in 10.0 mi NNW 18.4 mph - N/A   Clear
1:35 PM 26.6 °F 12.7 °F 19.4 °F 74% 30.35 in 10.0 mi NNW 20.7 mph - N/A   Clear
1:55 PM 26.6 °F 12.7 °F 19.4 °F 74% 30.35 in 10.0 mi NNW 20.7 mph - N/A   Clear
2:15 PM 26.6 °F 12.7 °F 19.4 °F 74% 30.35 in 10.0 mi NNW 20.7 mph 25.3 mph N/A   Clear
2:35 PM 26.6 °F 12.7 °F 17.6 °F 69% 30.35 in 10.0 mi NNW 20.7 mph - N/A   Clear
2:55 PM 26.6 °F 12.7 °F 15.8 °F 64% 30.35 in 10.0 mi NNW 20.7 mph - N/A   Clear
3:15 PM 26.6 °F 13.1 °F 17.6 °F 69% 30.35 in 10.0 mi NNW 19.6 mph - N/A   Clear
3:35 PM 26.6 °F 13.1 °F 17.6 °F 69% 30.35 in 10.0 mi NNW 19.6 mph 23.0 mph N/A   Clear
3:55 PM 26.6 °F 13.8 °F 17.6 °F 69% 30.35 in 10.0 mi NNW 17.3 mph - N/A   Clear
4:15 PM 28.4 °F 16.2 °F 17.6 °F 64% 30.35 in 10.0 mi NNW 17.3 mph - N/A   Clear
4:35 PM 28.4 °F 15.1 °F 17.6 °F 64% 30.35 in 10.0 mi NNW 20.7 mph - N/A   Clear
4:55 PM 28.4 °F 15.1 °F 17.6 °F 64% 30.35 in 10.0 mi NNW 20.7 mph - N/A   Clear
5:15 PM 26.6 °F 13.4 °F 17.6 °F 69% 30.35 in 10.0 mi NW 18.4 mph - N/A   Clear
5:35 PM 28.4 °F 15.8 °F 17.6 °F 64% 30.34 in 10.0 mi NNW 18.4 mph - N/A   Clear
5:55 PM 28.4 °F 16.2 °F 17.6 °F 64% 30.34 in 10.0 mi NNW 17.3 mph 21.9 mph N/A   Clear
6:15 PM 28.4 °F 16.2 °F 17.6 °F 64% 30.33 in 10.0 mi NNW 17.3 mph - N/A   Clear
6:35 PM 26.6 °F 15.2 °F 17.6 °F 69% 30.33 in 10.0 mi NNW 13.8 mph - N/A   Clear
6:55 PM 26.6 °F 14.7 °F 17.6 °F 69% 30.33 in 10.0 mi NNW 15.0 mph - N/A   Clear
7:15 PM 26.6 °F 14.3 °F 17.6 °F 69% 30.33 in 10.0 mi NNW 16.1 mph - N/A   Clear
7:35 PM 26.6 °F 16.2 °F 17.6 °F 69% 30.33 in 10.0 mi NNW 11.5 mph - N/A   Clear
7:55 PM 26.6 °F 16.2 °F 17.6 °F 69% 30.32 in 10.0 mi NNW 11.5 mph - N/A   Clear
8:15 PM 24.8 °F 14.6 °F 15.8 °F 69% 30.32 in 10.0 mi NNW 10.4 mph - N/A   Clear
8:35 PM 23.0 °F 12.4 °F 15.8 °F 74% 30.32 in 10.0 mi NNW 10.4 mph - N/A   Clear
8:55 PM 23.0 °F 14.7 °F 15.8 °F 74% 30.32 in 10.0 mi NW 6.9 mph - N/A   Clear
9:15 PM 19.4 °F 11.5 °F 15.8 °F 86% 30.32 in 10.0 mi WNW 5.8 mph - N/A   Clear
9:35 PM 19.4 °F 8.6 °F 14.0 °F 80% 30.32 in 10.0 mi WNW 9.2 mph - N/A   Clear
9:55 PM 19.4 °F 9.5 °F 14.0 °F 80% 30.33 in 10.0 mi West 8.1 mph - N/A   Clear
10:15 PM 17.6 °F 8.2 °F 12.2 °F 79% 30.33 in 10.0 mi WSW 6.9 mph - N/A   Clear
10:35 PM 17.6 °F 6.4 °F 12.2 °F 79% 30.32 in 10.0 mi West 9.2 mph - N/A   Clear
10:55 PM 15.8 °F 4.2 °F 12.2 °F 86% 30.32 in 10.0 mi WSW 9.2 mph - N/A   Clear
11:15 PM 14.0 °F 2.9 °F 10.4 °F 86% 30.32 in 10.0 mi WSW 8.1 mph - N/A   Clear
11:35 PM 14.0 °F 2.0 °F 10.4 °F 86% 30.32 in 10.0 mi WSW 9.2 mph - N/A   Clear
11:55 PM 14.0 °F 2.9 °F 10.4 °F 86% 30.31 in 10.0 mi West 8.1 mph - N/A   Clear